Location: ActonStarParty
(42.4766°N, 71.4538°W)
Time: 10:10:27
(UTC-04:00)

Daily predictions for brighter satellites

Satellite Brightness Start Highest point End
(mag) Time Altitude Azimuth Time Altitude Azimuth Time Altitude Azimuth
Lacrosse 5 4.5 20:50:49 10° NW 20:53:53 16° N 20:56:57 10° NNE
CZ-4 SHROUD 4.2 20:53:07 10° SE 20:55:58 32° ENE 20:58:50 10° N
Cosmos 2369 Rocket 2.5 20:51:25 10° NNW 20:57:00 56° ENE 21:02:31 10° SE
PSLV R/B 4.2 20:54:30 10° SE 20:57:15 30° ENE 21:00:04 10° N
H-2A R/B 4.2 20:56:20 10° ENE 20:57:17 10° NE 20:58:13 10° NE
USA 234 4.3 20:52:07 10° E 20:58:06 39° NNE 21:04:05 10° NW
Cosmos 1666 4.2 20:57:36 10° NNW 21:01:15 38° W 21:04:51 10° SSW
COSMOS 2455 3.0 20:56:44 10° SSW 21:02:44 84° WNW 21:08:48 10° NNE
ERS-1 Rocket 3.2 20:59:34 10° S 21:04:34 73° WSW 21:09:37 10° NNW
BREEZE-M DEB (TANK) 3.9 21:09:58 10° W 21:11:46 18° SW 21:13:23 10° S
YAOGAN 6 3.9 21:09:24 12° SE 21:12:18 28° ENE 21:15:32 10° NNE
GRACE-1 4.3 21:11:29 10° N 21:14:20 66° W 21:17:10 10° S
GRACE-2 4.3 21:11:56 10° N 21:14:47 66° W 21:17:36 10° S
USA 238 DEB 4.5 21:15:02 10° S 21:21:05 31° ESE 21:27:06 10° NE
USA 238 4.5 21:15:10 10° S 21:21:11 31° ESE 21:27:11 10° NE
Envisat 3.0 21:17:34 10° SSE 21:22:39 88° ENE 21:27:45 10° NNW
GEOS 3 Rocket 4.1 21:18:27 10° SSE 21:23:36 56° WSW 21:28:45 10° NW
Cosmos 1758 Rocket 4.2 21:20:06 11° SSE 21:23:57 38° E 21:27:57 10° NNE
Cosmos 407 Rocket 3.6 21:20:34 10° S 21:25:42 57° ESE 21:30:49 10° NNE
Cosmos 2263 4.2 21:26:52 10° NNW 21:32:31 77° ENE 21:37:05 16° SSE
Cosmos 1515 4.2 21:30:30 10° SSW 21:34:18 61° W 21:38:08 10° N
CZ-2C R/B 3.6 21:33:50 10° WSW 21:34:37 11° W 21:35:24 10° WNW
MetOp-A 4.1 21:31:36 13° SSE 21:36:27 80° ENE 21:41:50 10° NNW
SL-27 R/B 3.4 21:36:56 22° SE 21:38:00 26° ESE 21:40:51 10° NE
UNK 4.2 21:32:48 10° NNE 21:38:20 74° ESE 21:44:08 10° S
Cosmos 1825 Rocket 3.6 21:34:58 10° S 21:39:25 83° W 21:43:52 10° N
Cosmos 1066 Rocket 4.3 21:36:40 10° S 21:42:24 89° W 21:48:17 10° N
COSMOS 2406 4.0 21:39:25 16° SSE 21:43:10 31° ESE 21:48:10 10° NE
Cosmos 1943 Rocket 2.5 21:41:09 10° NNW 21:46:37 56° ENE 21:50:21 20° SE
Cosmos 1954 Rocket 4.2 21:42:03 10° S 21:47:10 52° ESE 21:52:18 10° NNE
Lacrosse 4 Rocket 1.8 21:44:51 10° SW 21:48:51 62° WNW 21:52:57 10° NNE
Cosmos 2084 3.6 21:50:32 10° NNW 21:54:38 61° NE 21:56:59 25° SE
SeaSat 1 2.5 21:52:49 20° SSE 21:56:15 80° WSW 22:01:13 10° NNW
Atlas Centaur 2 3.7 21:50:05 10° WSW 21:56:15 31° S 22:00:12 21° SE
Meteor 1-22 Rocket 4.4 21:51:46 10° NNW 21:57:26 78° W 22:02:15 16° S
H-2A R/B 4.2 21:55:24 10° SW 21:58:45 22° W 22:02:11 10° NW
Cosmos 1943 4.1 21:53:28 10° SW 21:58:59 52° WNW 22:04:35 10° NNE
ISS -0.7 21:57:12 10° WNW 21:59:51 22° NNW 22:02:30 10° NE
CZ-4C R/B 3.7 22:00:19 27° SE 22:02:15 52° ENE 22:06:07 10° N
Landsat 7 4.2 22:02:45 26° SE 22:05:12 51° ENE 22:09:48 10° N
SL-23 DEB 4.2 22:01:41 10° SW 22:08:11 86° SE 22:12:01 10° ENE
Cosmos 1741 Rocket 4.5 22:09:31 26° SSE 22:11:53 41° ESE 22:16:51 10° NNE
CZ-4B R/B 3.9 22:08:03 10° N 22:13:09 67° WNW 22:18:19 10° SSW
Geosat 4.5 22:09:14 10° NE 22:13:56 39° ESE 22:15:45 29° SSE
CZ-4 R/B 3.9 22:09:04 10° NNE 22:14:07 89° ESE 22:18:13 16° SSW
Cosmos 1953 2.4 22:11:50 10° N 22:15:47 61° E 22:17:07 38° SE
Nadezhda 4 Rocket 4.3 22:13:52 25° SSE 22:17:22 51° E 22:23:28 10° NNE
PSLV R/B 3.6 22:17:29 10° W 22:20:55 50° SSW 22:21:15 48° S
Terra 2.2 22:19:03 31° SE 22:21:01 51° ENE 22:25:38 10° N
ARGOS 3.3 22:18:01 23° S 22:21:26 73° WSW 22:26:53 10° NNW
Spot 4 4.5 22:19:48 29° ESE 22:21:41 42° ENE 22:26:12 10° N
Cosmos 1023 Rocket 4.4 22:18:44 21° S 22:22:18 70° ESE 22:27:33 10° NNE
Cosmos 2221 4.4 22:20:27 10° NNE 22:23:07 16° ENE 22:24:01 15° E
ATLAS 3B R/B 3.7 22:16:37 10° SW 22:24:09 56° NW 22:31:31 10° NNE
Cosmos-2242 3.0 22:21:43 10° N 22:26:09 82° W 22:28:01 34° S
Cosmos 1850 Rocket 4.0 22:24:44 28° S 22:27:19 59° ESE 22:32:27 10° NNE
Cosmos 1842 3.5 22:25:37 26° SSW 22:27:44 67° W 22:31:39 10° N
Cosmos 1140 Rocket 3.4 22:26:31 20° SSW 22:30:10 81° ESE 22:35:26 10° NNE
Cosmos 1570 Rocket 4.0 22:26:36 10° NNW 22:32:00 83° ENE 22:34:19 35° SSE
H-2A R/B 1.9 22:33:42 36° SSE 22:35:45 78° ENE 22:40:53 10° N
NOSS 3-2 (A) 4.0 22:35:29 32° SSE 22:37:07 38° ESE 22:43:04 10° NE
Lacrosse 5 4.2 22:34:52 10° NNW 22:38:35 20° NNE 22:42:18 10° ENE
SL-8 R/B 3.6 22:34:21 10° WNW 22:39:12 88° NNE 22:41:05 38° ESE
Cosmos 1607 3.8 22:33:04 10° SSW 22:39:19 76° ESE 22:45:33 10° NE
Cosmos 2369 Rocket 4.1 22:36:25 10° NW 22:40:33 21° W 22:44:34 10° SSW
USA 234 3.2 22:37:08 30° SE 22:40:43 82° SW 22:47:21 10° NW
Cosmos 614 Rocket 3.9 22:48:02 35° S 22:50:14 77° ESE 22:55:28 10° NNE
Spot 2 4.4 22:53:35 10° NNE 22:58:30 85° WNW 23:00:35 37° SSW
SAR-Lupe-2 4.0 22:58:16 47° WSW 22:58:38 49° W 23:02:08 10° NNW
Cosmos 1340 2.7 23:00:50 65° E 23:00:50 65° E 23:04:30 10° NNE
Cosmos 1544 3.0 22:57:58 10° N 23:01:45 84° W 23:01:55 80° SSW
Meteor 2-5 Rocket 3.8 23:00:28 42° SSE 23:02:19 64° E 23:08:01 10° NNE
CARTOSAT-1 4.0 23:02:00 42° SSW 23:03:03 54° W 23:07:18 10° NNW
CZ-4C R/B 2.3 23:03:35 46° SSE 23:04:35 53° ESE 23:10:19 10° NE
Okean 3 Rocket 3.4 23:08:05 65° SSE 23:08:35 74° E 23:13:01 10° NNE
Meteor 1-16 Rocket 4.5 23:05:49 10° N 23:11:25 57° ENE 23:13:00 43° SE
USA 238 DEB 4.3 23:04:40 10° SW 23:11:40 59° NW 23:18:40 10° NNE
USA 238 4.3 23:04:46 10° SW 23:11:46 60° NW 23:18:44 10° NNE
DMSP B5D2-2 4.4 23:10:25 10° N 23:15:38 63° WNW 23:18:08 31° SW
Cosmos 2278 4.3 23:12:14 10° NNW 23:17:42 48° ENE 23:19:32 35° ESE
Cosmos 1470 2.8 23:15:25 10° NNW 23:19:17 69° W 23:19:20 69° WSW
IGS 5A 4.3 23:19:53 36° WSW 23:20:31 39° W 23:24:26 10° NNW
Cosmos 1408 Rocket 4.1 23:21:14 44° E 23:21:14 44° E 23:25:24 10° NNE
COSMOS 2487 3.4 23:24:51 41° W 23:25:15 43° WNW 23:28:43 10° N
Cosmos 405 Rocket 4.2 23:27:35 27° ENE 23:27:35 27° ENE 23:29:58 10° NNE
COSMOS 2406 4.4 23:22:01 10° SW 23:27:21 40° WNW 23:32:45 10° NNE
Cosmos 1697 Rocket 4.5 23:23:51 10° N 23:28:18 23° NE 23:31:20 15° E
CENTAUR R/B 4.2 23:29:35 17° E 23:29:35 17° E 23:32:50 10° ENE
Cosmos 1943 Rocket 3.9 23:25:52 10° NW 23:29:55 21° W 23:31:53 17° SW
ALOS 2 3.8 23:32:11 30° E 23:32:35 31° ENE 23:36:27 10° N
Cosmos 1818 3.6 23:27:44 10° NNW 23:33:14 74° NE 23:34:29 53° ESE
Cosmos 2082 Rocket 3.2 23:34:49 30° E 23:34:49 30° E 23:39:28 10° NE
Cosmos 1833 Rocket 4.1 23:35:46 23° E 23:35:46 23° E 23:39:41 10° NE
Cosmos 1656 Rocket 4.5 23:31:44 10° NW 23:36:58 39° WSW 23:38:15 34° SW
ISS -0.3 23:34:57 10° NW 23:37:09 16° N 23:39:20 10° NE
CZ-4B R/B 3.2 23:37:33 26° ENE 23:37:33 26° ENE 23:40:23 10° NNE
NOSS 3-3 (A) 4.4 23:29:54 10° NW 23:37:22 88° SW 23:40:26 42° SSE
NOSS 3-3 (C) 4.4 23:30:00 10° NW 23:37:28 88° SW 23:40:33 42° SSE
Cosmos 1417 Rocket 4.4 23:35:26 10° N 23:41:36 83° E 23:43:09 53° SSE
H-2A R/B 3.6 23:39:06 10° NNE 23:41:37 30° ENE 23:41:37 30° ENE
Atlas Centaur 2 4.4 23:39:36 10° WSW 23:42:50 18° SW 23:42:50 18° SW
NOSS 3-2 (C) 3.4 23:43:08 38° SW 23:45:43 90° SE 23:52:26 10° NE
Cosmos 1553 Rocket 4.1 23:39:51 10° N 23:46:13 69° E 23:47:54 49° SE
Cosmos 1707 3.7 23:50:19 40° W 23:50:26 40° WNW 23:54:10 10° N
Cosmos 1743 Rocket 4.3 23:51:30 42° ENE 23:51:30 42° ENE 23:55:20 10° NNE
Cosmos 1378 3.8 23:56:29 52° NNE 23:56:29 52° NNE 23:59:28 10° N
